Regional Weather Roundup
Issued by NWS

Home | Current Version | Previous Version | Text Only | Print | Product List | Glossary Off
Versions: 1 2 3 4 5 6 7 8 9 10 11 12 13 14 15 16 17 18 19 20 21 22 23 24 25 26 27 28 29 30 31 32 33 34 35 36 37 38 39 40 41 42 43 44 45 46 47 48 49 50

000
ASUS43 KMKX 202310
RWRWI

WISCONSIN REGIONAL WEATHER ROUNDUP
NATIONAL WEATHER SERVICE MILWAUKEE/SULLIVAN WI
600 PM CDT FRI APR 20 2018

NOTE: "FAIR" INDICATES FEW OR NO CLOUDS BELOW 12,000 FEET WITH NO
SIGNIFICANT WEATHER AND/OR OBSTRUCTIONS TO VISIBILITY.

WIZ001-002-006>008-014>016-023>028-210000-
NORTHWEST WISCONSIN

CITY           SKY/WX    TMP DP  RH WIND       PRES   REMARKS
SUPERIOR ARPT  FAIR      58  26  29 W6        30.37F
ASHLAND        FAIR      50  24  36 N6        30.38F
HAYWARD        FAIR      54  15  21 CALM      30.39F
SIREN          FAIR      52  19  26 SW6       30.41S
CUMBERLAND     FAIR      45  18  33 CALM      30.41F
RICE LAKE      FAIR      51  20  29 W3        30.42F
CHETEK         FAIR      53  21  28 CALM      30.40F
LADYSMITH      FAIR      53  16  23 SW7       30.42S
EAU CLAIRE     FAIR      53  15  22 W6        30.40F
MENOMONIE      FAIR      55  19  25 CALM      30.41F
NEW RICHMOND   FAIR      51  21  30 CALM      30.41F
OSCEOLA        FAIR      53  20  27 SW3       30.44S
$$

WIZ003>005-009-010-017-018-210000-
NORTH CENTRAL WISCONSIN

CITY           SKY/WX    TMP DP  RH WIND       PRES   REMARKS
MANITOWISH WTR FAIR      51  16  24 S5        30.37S
ARBOR VITAE    FAIR      56   6  13 W5        30.37S
WOODRUFF       FAIR      56   6  13 W5        30.37S
RHINELANDER    FAIR      50  17  27 SW9       30.38F
EAGLE RIVER    FAIR      54   5  13 W3        30.37S
LAND O LAKES   FAIR      57   5  12 W5        30.38S
PHILLIPS       FAIR      53  14  21 SW7       30.38F
TOMAHAWK       FAIR      54  14  20 SW5       30.39S
MEDFORD        FAIR      48  19  31 S3        30.40F
MERRILL          N/A     52  17  24 SW9       30.41F
$$

WIZ029-030-035-036-043>047-210000-
CENTRAL WISCONSIN

CITY           SKY/WX    TMP DP  RH WIND       PRES   REMARKS
WAUSAU         FAIR      51  16  24 W8        30.40F
MOSINEE        PTSUNNY   50  16  25 W5        30.43S
MARSHFIELD     FAIR      53  14  21 CALM      30.40F
STEVENS POINT  FAIR      51  11  20 S3        30.42S
WAUPACA        FAIR      55  15  20 SE8       30.42F
WAUTOMA        FAIR      54  17  23 E5        30.42F
WISC RAPIDS    FAIR      54  11  18 W3        30.42F
CAMP DOUGLAS   FAIR      54  14  20 CALM      30.41S
$$

WIZ011>013-019>022-031-037>040-048>050-210000-
NORTHEAST WISCONSIN

CITY           SKY/WX    TMP DP  RH WIND       PRES   REMARKS
ANTIGO         FAIR      47  19  32 SW9       30.40F
SHAWANO        FAIR      56  13  17 S7        30.40F
OCONTO         FAIR      52  14  22 S8        30.41F
STURGEON BAY   FAIR      51  15  23 S9        30.43F
GREEN BAY      FAIR      49  19  30 S8        30.43F
MANITOWOC      FAIR      49  22  34 S7        30.45F
APPLETON       MOSUNNY   50  18  27 S6        30.41F
CLINTONVILLE   FAIR      52  16  24 S8        30.42F
OSHKOSH        FAIR      48  25  40 S3        30.43F
$$

WIZ032>034-041-042-053>061-210000-
SOUTHWEST WISCONSIN

CITY           SKY/WX    TMP DP  RH WIND       PRES   REMARKS
LA CROSSE      FAIR      56  21  25 SW8       30.41F
SPARTA         FAIR      55  14  20 NW5       30.42F
VIROQUA        FAIR      50  31  49 NE5       30.40S
BOSCOBEL       FAIR      60  24  25 CALM      30.40F
PRAIRIE DU CHI FAIR      56  26  30 CALM      30.39F
PLATTEVILLE    FAIR      57  25  29 CALM      30.40S
$$

WIZ056-057-062-063-064-067-068-210000-
SOUTH CENTRAL WISCONSIN

CITY           SKY/WX    TMP DP  RH WIND       PRES   REMARKS
REEDSBURG      FAIR      54  17  23 N3        30.41S
BARABOO/DELLS  FAIR      54   6  14 CALM      30.41F
LONE ROCK      FAIR      59  24  26 E5        30.40F
MINERAL POINT  FAIR      59  21  23 SW5       30.40S
MADISON        PTSUNNY   54  25  32 NE9       30.41F
MIDDLETON      FAIR      55  26  33 E9        30.41F
WATERTOWN      FAIR      50  23  34 E5        30.43F
MONROE         FAIR      55  18  22 S6        30.40F
JANESVILLE     MOSUNNY   61  12  15 CALM      30.41F
$$

WIZ051-052-058>065-066-070>072-210000-
SOUTHEAST WISCONSIN

CITY           SKY/WX    TMP DP  RH WIND       PRES   REMARKS
MILWAUKEE      PTSUNNY   49  21  33 SE10      30.44F
WAUKESHA       SUNNY     54  14  20 CALM      30.44F
MILWAUKEE/TIMM SUNNY     52  19  28 E9        30.45F
RACINE         FAIR      49  13  23 SE9       30.46F
BURLINGTON     FAIR      56  13  18 CALM      30.43F
KENOSHA        FAIR      52  19  27 E9        30.44F
FOND DU LAC    FAIR      51  14  22 S5        30.43F
SHEBOYGAN      FAIR      51  29  42 SE5       30.44F
WEST BEND      FAIR      54  14  20 CALM      30.43F
JUNEAU         FAIR      51  16  24 CALM      30.44F
$$

LSZ147-162-210000-
LAKE SUPERIOR

STATION/POSITION TIME  TEMP    WIND        PRES    WAVE
                       AIR SEA DIR/SP/G            HT/PER
                 (UTC) (F)     (DEG/KT/KT) (MB)    (FT/S)
DEVILS ISLAND    2300   49     360/  2/  3 1029.2F
SAXON HARBOR     2240   42     310/  4/  5 1028.4S
$$

LMZ867-665-643>646-210000-
LAKE MICHIGAN

STATION/POSITION TIME  TEMP    WIND        PRES    WAVE
                       AIR SEA DIR/SP/G            HT/PER
                 (UTC) (F)     (DEG/KT/KT) (MB)    (FT/S)
NORTHPORT PIER   2240   48                 1029.5F
KEWAUNEE LAKESHO 2248   39     170/  8/ 10 1030.1F
SHEBOYGAN LAKESH 2300   47     180/  9/ 10 1031.2F
PORT WASHINGTON  2230   45     190/  2/  4 1032.2F
MILWAUKEE LAKESH 2250   41     110/  1/  2   N/A
KENOSHA   LAKESH 2300   44                 1030.8
$$

TC  - TEMPERATURE IN CELSIUS
VSB - VISIBILITY IN STATUTE MILES
WCI - WIND CHILL INDEX
HX  - HEAT INDEX





USA.gov is the U.S. government's official web portal to all federal, state and local government web resources and services.